OPS 4682 DEB, 38380

Orbit data source: Space-Track

OPS 4682 DEB, 38380 is space debris in LEO originally from a launch on Sat, 03 Apr 1965 UTC launched from the Air Force Western Test Range (AFWTR). Debris objects in space refer to the collection of defunct objects orbiting the Earth. Examples of debris include non-operational satellites, rocket bodies, and fragments generated from explosions, collisions, or faulty payload assembly.

Loading next visibility...
Identifier
38380, 1965-027CH
Orbit
LEO
Country
Flag of USUS
Related business
Manufacturer
Unknown
Mission
Spacecraft
Bus & Motor
Unknown
Mass
Unknown
Launch date (UTC)
1965-04-03 (61 years ago)
Launch vehicle
Unknown
Launch site
Air Force Western Test Range (AFWTR)
Object type
Payload
Rocket body
Debris
Shape & HBR
Unknown shape, 0.1 m
Radar Cross Section
Small (<0.1 m²)

Expand to show TLE details & history
Last TLE update: 3 days ago

TLE from 3 days ago
0 OPS 4682 DEB
1 38380U 65027CH  26104.35440239  .00001080  00000-0  35693-2 0  9992
2 38380  90.2626 319.7568 0023625 124.0247 236.3123 12.99809021569322
Epoch: 2026-04-14T08:30Z
TLE epoch observation values (Epoch: 2026-04-14T08:30:20.366Z)
Latitude
-0.00004°
Longitude
-10.35991°
Altitude
1,275.762 km
Speed
7.213 km/s
True Right ascension
21h 19m 01s
True Declination
0° 00' 00"
Sunlit
Object was in daylight at epoch
Visualization orbit readout
Latitude
Unknown
Longitude
Unknown
Altitude
Unknown
Speed
Unknown
Apparent Right ascension
Unknown
Apparent Declination
Unknown
Sunlit
N/A
Visualization observer readout
Local Sidereal Time
01:07:31
Azimuth
Unknown
Elevation
Unknown
Doppler factor
Unknown
Orbital elements
Apogee altitude
1,278.007 km
Perigee altitude
1,241.917 km
Semi-major axis
7,638.099 km
Eccentricity
0.00236
Inclination
90.2626°
RAAN
319.7568°
Arg. of periapsis
124.0247°
True anomaly
236.08741°
Mean anomaly
236.3123°
Eccentric anomaly
236.19982°
Mean motion
3.25136 °/min
Orbital period
110.72 mins
BSTAR
0.0035693
Loading maneuver chart data...
Computing Atmospheric mass density...
Loading historical data...
Loading historical data...
Loading historical data...
Loading historical data...
Loading historical data...
Loading historical data...
Loading historical data...

Documentation

Showing up to 5 results
|